Regional Weather Roundup
Issued by NWS San Angelo, TX

Home | Current Version | Previous Version | Text Only | Print | Product List | Glossary On
Versions: 1 2 3 4 5 6 7 8 9 10 11 12 13 14 15 16 17 18 19 20 21 22 23 24 25 26 27 28 29 30 31 32 33 34 35 36 37 38 39 40 41 42 43 44 45 46 47 48 49 50
000
ASUS44 KSJT 051102
RWRSJT
WEST CENTRAL TEXAS REGIONAL WEATHER ROUNDUP
NATIONAL WEATHER SERVICE SAN ANGELO TX
600 AM CDT THU MAY 05 2016

NOTE: "FAIR" INDICATES FEW OR NO CLOUDS BELOW 12,000 FEET WITH NO
SIGNIFICANT WEATHER AND/OR OBSTRUCTIONS TO VISIBILITY.

TXZ049-054-064>066-071>073-076>078-098-099-113-114-127-128-139-140-
154-155-168>170-051200
...LOCATIONS ACROSS WEST CENTRAL TEXAS...

CITY           SKY/WX    TMP DP  RH WIND       PRES   REMARKS
SAN ANGELO     CLEAR     47  41  80 SW3       30.08S
ABILENE        CLEAR     56  46  69 E3        30.08S
DYESS AFB      CLEAR     50  47  88 NE3       30.07R
JUNCTION       PTCLDY    45  40  82 W7        30.10R
SWEETWATER     NOT AVBL
BROWNWOOD      NOT AVBL
COLEMAN        SUNNY     53  46  75 CALM      30.08S
SONORA         NOT AVBL
OZONA          NOT AVBL
BRADY          NOT AVBL
$$

TEXAS PANHANDLE/OKLAHOMA PANHANDLE

CITY           SKY/WX    TMP DP  RH WIND       PRES   REMARKS
AMARILLO       CLEAR     49  37  63 SE7       30.15S
BORGER         CLEAR     52  41  66 W5        30.14R
CANADIAN       CLEAR     44  43  96 CALM      30.12S
DALHART        CLEAR     46  38  73 NW3       30.16S
DUMAS          SUNNY     45  38  77 S5        30.14S
GUYMON         NOT AVBL
HEREFORD       SUNNY     43  37  79 N9        30.15S WCI  38
PAMPA          NOT AVBL
PERRYTON       NOT AVBL
$$

SOUTHERN PANHANDLE/SOUTH PLAINS/ROLLING PLAINS

CITY           SKY/WX    TMP DP  RH WIND       PRES   REMARKS
LUBBOCK        CLEAR     55  35  47 SW6       30.12F
SNYDER           N/A     58  41  54 CALM      30.11S
CHILDRESS      CLEAR     54  42  64 NE3       30.10R
SEMINOLE       SUNNY     48  33  55 CALM      30.14S
$$

PERMIAN BASIN

CITY           SKY/WX    TMP DP  RH WIND       PRES   REMARKS
MIDLAND        CLEAR     56  32  40 CALM      30.11R
ODESSA         CLEAR     57  32  38 S5        30.12R
WINK           CLEAR     45  29  53 N7        30.10R
$$

FAR WEST/SOUTHWEST MOUNTAINS/TRANS PECOS

CITY           SKY/WX    TMP DP  RH WIND       PRES   REMARKS
ALPINE         NOT AVBL
DRYDEN           N/A     61  33  35 CALM      30.08R
EL PASO        PTCLDY    66  21  18 CALM      30.10S
FORT STOCKTON  CLEAR     59  32  36 S10       30.11R
GUADALUPE PASS NOT AVBL
MARFA          CLOUDY    43  23  45 N6        30.22R WCI  39
PECOS          NOT AVBL
$$

DALLAS/FORT WORTH METROPLEX

CITY           SKY/WX    TMP DP  RH WIND       PRES   REMARKS
DFW AIRPORT    CLEAR     61  51  70 NW5       30.05R
FTW MEACHAM    CLEAR     59  49  69 CALM      30.06R
DAL-EXECUTIVE  PTCLDY    58  48  69 NW5       30.04R
GRAND PRAIRIE  PTCLDY    63  51  63 CALM      30.07R
ADDISON        NOT AVBL
MESQUITE       SUNNY     57  50  77 CALM      30.04S
LANCASTER      MOSUNNY   55  48  76 CALM      30.05R
$$

NORTH CENTRAL TEXAS

CITY           SKY/WX    TMP DP  RH WIND       PRES   REMARKS
SHRMAN/DENISON NOT AVBL
GAINESVILLE    NOT AVBL
BRIDGEPORT     SUNNY     51  51 100 CALM      30.09R
DENTON         CLEAR     52  48  86 NW3       30.05R
WAXAHACHIE     MOSUNNY   56  50  81 CALM      30.06R
GRANBURY         N/A     54  51  89 CALM      30.08R
$$

WESTERN NORTH TEXAS

CITY           SKY/WX    TMP DP  RH WIND       PRES   REMARKS
WICHITA FALLS  CLEAR     55  49  80 NW6       30.08R
VERNON         NOT AVBL
BRECKENRIDGE   NOT AVBL
COMANCHE       CLEAR     54  49  83 N5        30.07S
$$

CENTRAL AND SOUTH CENTRAL TEXAS

CITY           SKY/WX    TMP DP  RH WIND       PRES   REMARKS
AUSTIN/BERGSTM CLEAR     53  51  93 W3        30.02S
WACO           CLEAR     54  51  90 CALM      30.05R
HILLSBORO      SUNNY     53  49  87 CALM      30.06R
TEMPLE         NOT AVBL
KILLEEN-GRAY   CLEAR     56  50  79 N9        30.03S
FORT HOOD      CLEAR     58  49  73 NW3       30.02S
GEORGETOWN     CLEAR     54  46  76 CALM      30.03S
LAGO VISTA     FAIR      64  47  55 W7        30.04S
SAN MARCOS     CLEAR     54  48  82 NW6       30.04S
NEW BRAUNFELS  CLEAR     55  48  77 NW3       30.02S
RANDOLPH AFB   CLEAR     55  49  81 NW8       30.03S
SAN ANTONIO    CLEAR     56  47  71 NW7       30.04S
STINSON        CLEAR     57  50  77 CALM      30.02R
PLEASANTON     NOT AVBL
LA GRANGE      NOT AVBL
GIDDINGS       SUNNY     56  53  89 NW3       30.05S
$$

EAST TEXAS

CITY           SKY/WX    TMP DP  RH WIND       PRES   REMARKS
PARIS          CLEAR     52  39  62 NW6       30.03R
CLARKSVILLE    NOT AVBL
TYLER          CLEAR     57  49  74 N3        30.02R
LONGVIEW       CLEAR     53  49  86 NW5       30.00R
PALESTINE      MOSUNNY   55  52  89 N3        30.03R
NACOGDOCHES    CLEAR     54  48  82 N3        30.00R
$$

TEXAS HILL COUNTRY AND EDWARDS PLATEAU

CITY           SKY/WX    TMP DP  RH WIND       PRES   REMARKS
LLANO          NOT AVBL
HORSESHOE BAY  FAIR      49  47  92 CALM      30.06R
KERRVILLE      CLEAR     46  44  93 CALM      30.08S
FREDERICKSBRG  NOT AVBL
ROCKSPRINGS    NOT AVBL
HONDO          CLEAR     53  46  77 N7        30.06R
UVALDE         NOT AVBL
DEL RIO        CLOUDY    56  48  74 CALM      30.03R
$$

SOUTHEAST TEXAS

CITY           SKY/WX    TMP DP  RH WIND       PRES   REMARKS
COLLEGE STN    CLEAR     58  53  84 N8        30.02R
CALDWELL       NOT AVBL
CROCKETT       NOT AVBL
BRENHAM        NOT AVBL
HUNTSVILLE     CLEAR     58  53  84 CALM      30.02R
CONROE         CLEAR     54  53  97 NW3       30.01R
HOUSTON BUSH   CLEAR     60  55  83 W3        29.99R
HOUSTON HOBBY  CLEAR     64  57  78 NW3       29.98R
PERLAND        CLEAR     62  57  83 CALM      29.99S
WHARTON        NOT AVBL
$$

THE UPPER TEXAS COAST

CITY           SKY/WX    TMP DP  RH WIND       PRES   REMARKS
ORANGE         SUNNY     61  55  79 NW3       29.99R
PORT ARTHUR    CLEAR     61  57  87 NW8       29.97R
GALVESTON      CLEAR     67  60  78 W8        29.98S
ANGLETON       CLEAR     62  59  90 W3        29.99S
BAY CITY       SUNNY     62  60  91 CALM      30.01R
$$

TEXAS COASTAL BEND, RIO GRANDE PLAINS DEEP SOUTH TEXAS

CITY           SKY/WX    TMP DP  RH WIND       PRES   REMARKS
VICTORIA       CLEAR     59  56  89 W7        30.02S
BEEVILLE       FAIR      60  56  85 W3        30.02S
ROCKPORT       CLEAR     66  60  81 W6        30.01S
PORT ARANSAS   NOT AVBL
PORT LAVACA    SUNNY     59  57  94 W5        30.02R
CORPUS CHRISTI CLEAR     60  55  83 SW5       30.02R
KINGSVILLE NAS CLEAR     57  57 100 CALM      30.02R
COTULLA        CLEAR     61  48  62 CALM      30.03R
LAREDO         CLEAR     65  52  62 SE7       30.02S
BROWNSVILLE    CLEAR     64  62  93 SW6       30.03R
PORT ISABEL    CLEAR     63  61  93 SW7       30.01R
HEBBRONVILLE   NOT AVBL
MCALLEN        CLEAR     66  55  67 S5        30.02S
WESLACO        NOT AVBL
FALFURRIAS     SUNNY     55  51  84 CALM      30.01S
EDINBURG       SUNNY     66  57  72 SW5       30.02S
$$



USA.gov is the U.S. government's official web portal to all federal, state and local government web resources and services.